Weather History for Carlsbad, NM

Change the Weather History Date:

Thursday, November 28, 2013

  Actual Average Record
Temperature  
Mean Temperature 42 °F -  
Max Temperature 57 °F 59 °F 83 °F (1949)
Min Temperature 27 °F 28 °F 4 °F (1976)
Degree Days  
Heating Degree Days 23    
Moisture  
Dew Point 29 °F    
Average Humidity 67    
Maximum Humidity 89    
Minimum Humidity 32    
Precipitation  
Precipitation 0.00 in - - ()
Sea Level Pressure  
Sea Level Pressure 30.20 in    
Wind  
Wind Speed 3 mph (SSE)    
Max Wind Speed 8 mph    
Max Gust Speed -    
Visibility 10 miles    
Events      
Averages and records for this station are not official NWS values.
T = Trace of Precipitation, MM = Missing Value Source: NWS Daily Summary

Daily Weather History Graph

Daily Weather History Graph

Search for Another Location

Airport:

Trip Planner

Search our weather history database for the weather conditions in past years. The results will help you decide how hot, cold, wet, or windy it might be!

Date:

Astronomy

Nov. 28, 2013 Rise Set
Actual Time 6:38 AM MST 4:51 PM MST
Civil Twilight 6:11 AM MST 5:18 PM MST
Nautical Twilight 5:41 AM MST 5:48 PM MST
Astronomical Twilight 5:11 AM MST 6:18 PM MST
Moon 1:57 AM MST (11/28) 1:49 PM MST (11/28)
Length of Visible Light 11h 07m
Length of Day
10h 13m
Waning Crescent, 22% of the Moon is Illuminated
Nov 28
Waning Crescent
Dec 2
New
Dec 9
First Quarter
Dec 17
Full
Dec 25
Last Quarter

Hourly Weather History & Observations

Time (MST) Temp. Windchill Dew Point Humidity Pressure Visibility Wind Dir Wind Speed Gust Speed Precip Events Conditions
12:53 AM 35.1 °F 32.2 °F 28.0 °F 76% 30.17 in 10.0 mi SSE 3.5 mph - N/A   Clear
1:53 AM 34.0 °F 31.0 °F 28.9 °F 82% 30.17 in 10.0 mi SE 3.5 mph - N/A   Clear
2:53 AM 33.1 °F 28.7 °F 28.9 °F 85% 30.17 in 10.0 mi SE 4.6 mph - N/A   Clear
3:53 AM 30.9 °F 26.2 °F 27.0 °F 85% 30.17 in 10.0 mi South 4.6 mph - N/A   Clear
4:53 AM 28.0 °F - 25.0 °F 88% 30.19 in 10.0 mi Calm Calm - N/A   Clear
5:53 AM 27.0 °F - 24.1 °F 89% 30.21 in 10.0 mi Calm Calm - N/A   Clear
6:53 AM 27.0 °F 21.6 °F 23.0 °F 85% 30.23 in 10.0 mi SW 4.6 mph - N/A   Clear
7:53 AM 35.1 °F 32.2 °F 30.9 °F 85% 30.23 in 10.0 mi South 3.5 mph - N/A   Clear
8:53 AM 39.0 °F 36.8 °F 30.9 °F 73% 30.24 in 10.0 mi SSE 3.5 mph - N/A   Clear
9:53 AM 43.0 °F - 30.9 °F 62% 30.23 in 10.0 mi Calm Calm - N/A   Clear
10:53 AM 46.9 °F - 30.9 °F 54% 30.21 in 10.0 mi Calm Calm - N/A   Clear
11:53 AM 51.1 °F - 30.9 °F 46% 30.18 in 10.0 mi Variable 4.6 mph - N/A   Clear
12:53 PM 55.0 °F - 28.9 °F 37% 30.15 in 10.0 mi South 4.6 mph - N/A   Clear
1:53 PM 55.9 °F - 28.0 °F 34% 30.14 in 10.0 mi SE 4.6 mph - N/A   Clear
2:53 PM 57.9 °F - 28.0 °F 32% 30.13 in 10.0 mi ESE 3.5 mph - N/A   Clear
3:53 PM 57.0 °F - 27.0 °F 32% 30.15 in 10.0 mi ESE 8.1 mph - N/A   Clear
4:53 PM 52.0 °F - 30.0 °F 43% 30.18 in 10.0 mi East 4.6 mph - N/A   Clear
5:53 PM 44.1 °F - 30.9 °F 60% 30.22 in 10.0 mi Calm Calm - N/A   Clear
6:53 PM 37.0 °F 31.0 °F 32.0 °F 82% 30.25 in 10.0 mi SSW 8.1 mph - N/A   Clear
7:53 PM 37.9 °F 32.1 °F 30.9 °F 76% 30.26 in 10.0 mi SW 8.1 mph - N/A   Clear
8:53 PM 37.9 °F - 30.9 °F 76% 30.26 in 10.0 mi Calm Calm - N/A   Clear
9:53 PM 37.0 °F 31.6 °F 30.9 °F 79% 30.27 in 10.0 mi South 6.9 mph - N/A   Clear
10:53 PM 37.9 °F 32.7 °F 30.9 °F 76% 30.25 in 10.0 mi SSE 6.9 mph - N/A   Clear
11:53 PM 36.0 °F - 30.9 °F 82% 30.25 in 10.0 mi Calm Calm - N/A   Clear